TimeCDT,TemperatureF,Dew PointF,Humidity,Sea Level PressureIn,VisibilityMPH,Wind Direction,Wind SpeedMPH,Gust SpeedMPH,PrecipitationIn,Events,Conditions,WindDirDegrees,DateUTC
12:53 AM,75.0,66.0,73,29.76,10.0,South,15.0,-,N/A,,Partly Cloudy,170,2013-04-18 05:53:00
1:53 AM,75.0,66.9,76,29.74,10.0,South,15.0,24.2,N/A,,Partly Cloudy,170,2013-04-18 06:53:00
2:53 AM,75.9,66.9,74,29.72,10.0,South,19.6,31.1,N/A,,Overcast,180,2013-04-18 07:53:00
3:53 AM,75.0,66.9,76,29.70,10.0,South,17.3,25.3,N/A,,Mostly Cloudy,180,2013-04-18 08:53:00
4:53 AM,75.0,66.9,76,29.72,10.0,South,16.1,24.2,N/A,,Overcast,180,2013-04-18 09:53:00
5:53 AM,73.9,66.0,76,29.70,10.0,South,23.0,29.9,0.00,,Overcast,180,2013-04-18 10:53:00
6:53 AM,73.9,64.9,73,29.69,10.0,South,20.7,31.1,N/A,,Overcast,180,2013-04-18 11:53:00
7:53 AM,73.9,64.9,73,29.70,10.0,South,20.7,34.5,N/A,,Mostly Cloudy,180,2013-04-18 12:53:00
8:13 AM,73.4,64.4,73,29.71,10.0,South,21.9,35.7,N/A,,Mostly Cloudy,190,2013-04-18 13:13:00
8:53 AM,73.9,64.9,73,29.70,10.0,South,23.0,38.0,N/A,,Overcast,190,2013-04-18 13:53:00
9:53 AM,75.0,64.9,71,29.68,10.0,South,26.5,40.3,N/A,,Mostly Cloudy,180,2013-04-18 14:53:00
10:53 AM,75.9,64.9,69,29.69,10.0,South,24.2,33.4,N/A,,Mostly Cloudy,190,2013-04-18 15:53:00
11:53 AM,78.1,64.9,64,29.66,10.0,South,21.9,36.8,N/A,,Mostly Cloudy,190,2013-04-18 16:53:00
12:53 PM,78.1,64.9,64,29.64,10.0,South,20.7,35.7,N/A,,Overcast,190,2013-04-18 17:53:00
1:53 PM,70.0,61.0,73,29.65,10.0,WSW,12.7,32.2,N/A,,Overcast,250,2013-04-18 18:53:00
2:13 PM,69.8,60.8,73,29.68,7.0,WSW,17.3,24.2,0.00,Rain,Light Rain,240,2013-04-18 19:13:00
2:16 PM,68.0,62.6,83,29.68,1.2,SW,20.7,29.9,0.02,Rain,Rain,230,2013-04-18 19:16:00
2:21 PM,66.2,62.6,88,29.68,0.8,SW,17.3,29.9,0.19,Rain-Thunderstorm,Heavy Rain,230,2013-04-18 19:21:00
2:36 PM,64.4,64.4,100,29.69,1.0,SSW,13.8,21.9,0.42,Rain-Thunderstorm,Heavy Thunderstorms and Rain,200,2013-04-18 19:36:00
2:53 PM,64.9,64.0,97,29.66,1.2,SSW,9.2,-,0.65,Rain-Thunderstorm,Thunderstorms and Rain,200,2013-04-18 19:53:00
3:04 PM,64.4,64.4,100,29.67,2.5,South,13.8,-,0.04,Rain-Thunderstorm,Rain,180,2013-04-18 20:04:00
3:18 PM,66.2,64.4,94,29.65,4.0,South,10.4,19.6,0.08,Rain-Thunderstorm,Thunderstorms and Rain,190,2013-04-18 20:18:00
3:31 PM,66.2,64.4,94,29.65,2.5,South,11.5,-,0.13,Rain,Rain,180,2013-04-18 20:31:00
3:46 PM,64.4,64.4,100,29.63,5.0,South,9.2,-,0.18,Rain,Light Rain,170,2013-04-18 20:46:00
3:53 PM,64.9,64.9,100,29.62,5.0,South,10.4,-,0.20,Rain-Thunderstorm,Light Rain,170,2013-04-18 20:53:00
4:09 PM,64.4,62.6,94,29.64,6.0,South,11.5,-,0.03,Rain,Light Rain,180,2013-04-18 21:09:00
4:29 PM,64.4,62.6,94,29.65,5.0,SSW,9.2,-,0.08,Rain,Light Rain,200,2013-04-18 21:29:00
4:36 PM,64.4,62.6,94,29.66,2.5,SSW,12.7,-,0.11,Rain,Rain,200,2013-04-18 21:36:00
4:53 PM,64.9,63.0,93,29.65,3.0,SSW,11.5,-,0.18,Rain,Rain,210,2013-04-18 21:53:00
5:10 PM,64.4,62.6,94,29.67,2.0,West,25.3,35.7,0.08,Rain,Rain,270,2013-04-18 22:10:00
5:15 PM,62.6,57.2,82,29.66,2.5,West,18.4,35.7,0.10,Rain,Rain,280,2013-04-18 22:15:00
5:21 PM,60.8,57.2,88,29.65,4.0,WNW,16.1,29.9,0.12,Rain,Rain,300,2013-04-18 22:21:00
5:26 PM,60.8,57.2,88,29.65,2.5,WNW,17.3,26.5,0.14,Rain,Rain,300,2013-04-18 22:26:00
5:33 PM,59.0,55.4,88,29.65,2.0,WNW,15.0,24.2,0.19,Rain,Rain,290,2013-04-18 22:33:00
5:43 PM,57.2,55.4,94,29.67,4.0,NW,20.7,24.2,0.23,Rain,Rain,310,2013-04-18 22:43:00
5:53 PM,55.0,52.0,89,29.71,4.0,WNW,20.7,28.8,0.24,Rain,Light Rain,290,2013-04-18 22:53:00
6:00 PM,55.4,51.8,88,29.73,1.8,WNW,24.2,29.9,0.05,Rain,Heavy Rain,300,2013-04-18 23:00:00
6:12 PM,51.8,46.4,82,29.71,3.0,WNW,19.6,34.5,0.12,Rain,Rain,300,2013-04-18 23:12:00
6:53 PM,50.0,46.9,89,29.70,5.0,NW,16.1,25.3,0.22,Rain,Light Rain,310,2013-04-18 23:53:00
7:53 PM,48.0,45.0,89,29.75,6.0,WNW,12.7,21.9,0.12,Rain,Light Rain,300,2013-04-19 00:53:00
8:53 PM,48.0,42.1,80,29.77,10.0,WNW,12.7,20.7,0.04,Rain,Light Rain,290,2013-04-19 01:53:00
9:11 PM,48.2,42.8,82,29.79,10.0,WNW,12.7,-,0.00,Rain,Light Rain,300,2013-04-19 02:11:00
9:53 PM,46.9,39.9,77,29.78,10.0,WNW,16.1,27.6,0.00,,Overcast,300,2013-04-19 02:53:00
10:35 PM,46.4,37.4,71,29.81,10.0,WNW,17.3,26.5,N/A,,Overcast,300,2013-04-19 03:35:00
10:53 PM,46.0,36.0,68,29.80,10.0,WNW,12.7,24.2,N/A,,Overcast,300,2013-04-19 03:53:00
11:53 PM,46.0,35.1,66,29.82,10.0,WNW,9.2,-,N/A,,Overcast,300,2013-04-19 04:53:00